| time (UTC) | temp F | wind direction | speed MPH | gust MPH | rain 1hr in | rain 24hr in | rain mn in | humidity % | barometer mb |
| 20260902095034 | 78 | 0 | 0.0 | 4.0 | 0.00 | 0.00 | 0.00 | 87 | 1019.2 |
| 20260902094550 | 78 | 0 | 0.0 | 4.0 | 0.00 | 0.00 | 0.00 | 87 | 1019.2 |
| 20260902094035 | 78 | 141 | 0.0 | 4.0 | 0.00 | 0.00 | 0.00 | 87 | 1019.2 |
| 20260902093535 | 78 | 0 | 0.0 | 4.0 | 0.00 | 0.00 | 0.00 | 87 | 1019.3 |
| 20260902093055 | 78 | 0 | 1.0 | 5.0 | 0.00 | 0.00 | 0.00 | 86 | 1019.4 |
| 20260902092537 | 78 | 0 | 0.0 | 5.0 | 0.00 | 0.00 | 0.00 | 86 | 1019.3 |
| 20260902092037 | 78 | 163 | 0.0 | 4.0 | 0.00 | 0.00 | 0.00 | 85 | 1019.4 |
| 20260902091603 | 78 | 0 | 0.0 | 2.0 | 0.00 | 0.00 | 0.00 | 85 | 1019.4 |
| 20260902091034 | 78 | 0 | 0.0 | 2.0 | 0.00 | 0.00 | 0.00 | 85 | 1019.4 |
| 20260902090534 | 78 | 163 | 0.0 | 2.0 | 0.00 | 0.00 | 0.00 | 85 | 1019.3 |
| 20260902090050 | 78 | 0 | 0.0 | 2.0 | 0.00 | 0.00 | 0.00 | 85 | 1019.3 |
| 20260902085534 | 79 | 0 | 0.0 | 2.0 | 0.00 | 0.00 | 0.00 | 84 | 1019.3 |
| 20260902085035 | 79 | 0 | 0.0 | 3.0 | 0.00 | 0.00 | 0.00 | 84 | 1019.4 |
| 20260902084601 | 79 | 0 | 0.0 | 3.0 | 0.00 | 0.00 | 0.00 | 84 | 1019.4 |
| 20260902084035 | 79 | 0 | 0.0 | 1.0 | 0.00 | 0.00 | 0.00 | 83 | 1019.5 |
| 20260902083532 | 79 | 0 | 0.0 | 0.0 | 0.00 | 0.00 | 0.00 | 83 | 1019.5 |
| 20260902083113 | 79 | 0 | 0.0 | 0.0 | 0.00 | 0.00 | 0.00 | 83 | 1019.5 |
| 20260902082535 | 79 | 0 | 0.0 | 0.0 | 0.00 | 0.00 | 0.00 | 82 | 1019.5 |
| 20260902082036 | 79 | 0 | 0.0 | 0.0 | 0.00 | 0.00 | 0.00 | 82 | 1019.4 |
| 20260902081553 | 79 | 0 | 0.0 | 1.0 | 0.00 | 0.00 | 0.00 | 81 | 1019.5 |
| 20260902081034 | 79 | 0 | 0.0 | 1.0 | 0.00 | 0.00 | 0.00 | 81 | 1019.5 |
| 20260902080534 | 80 | 0 | 0.0 | 1.0 | 0.00 | 0.00 | 0.00 | 81 | 1019.5 |
| 20260902080056 | 80 | 0 | 0.0 | 0.0 | 0.00 | 0.00 | 0.00 | 81 | 1019.5 |
| 20260902075536 | 80 | 0 | 0.0 | 0.0 | 0.00 | 0.00 | 0.00 | 80 | 1019.5 |
| 20260902075035 | 80 | 0 | 0.0 | 2.0 | 0.00 | 0.00 | 0.00 | 80 | 1019.6 |
| 20260902074549 | 80 | 0 | 0.0 | 2.0 | 0.00 | 0.00 | 0.00 | 79 | 1019.4 |
| 20260902074035 | 80 | 0 | 0.0 | 2.0 | 0.00 | 0.00 | 0.00 | 79 | 1019.5 |
| 20260902073535 | 80 | 0 | 0.0 | 2.0 | 0.00 | 0.00 | 0.00 | 79 | 1019.4 |
| 20260902073057 | 80 | 0 | 0.0 | 2.0 | 0.00 | 0.00 | 0.00 | 78 | 1019.5 |
| 20260902072537 | 81 | 0 | 0.0 | 1.0 | 0.00 | 0.00 | 0.00 | 78 | 1019.5 |
| 20260902072035 | 81 | 0 | 0.0 | 3.0 | 0.00 | 0.00 | 0.00 | 78 | 1019.4 |
| 20260902071555 | 81 | 0 | 0.0 | 4.0 | 0.00 | 0.00 | 0.00 | 78 | 1019.4 |
| 20260902071035 | 81 | 156 | 1.0 | 5.0 | 0.00 | 0.00 | 0.00 | 77 | 1019.3 |
| 20260902070535 | 81 | 166 | 1.0 | 5.0 | 0.00 | 0.00 | 0.00 | 77 | 1019.5 |
| 20260902070055 | 81 | 0 | 2.0 | 5.0 | 0.00 | 0.00 | 0.00 | 77 | 1019.5 |
| 20260902065534 | 81 | 135 | 1.0 | 5.0 | 0.00 | 0.00 | 0.00 | 76 | 1019.4 |
| 20260902065035 | 81 | 0 | 2.0 | 6.0 | 0.00 | 0.00 | 0.00 | 76 | 1019.4 |
| 20260902064552 | 81 | 144 | 3.0 | 6.0 | 0.00 | 0.00 | 0.00 | 76 | 1019.4 |
| 20260902064038 | 82 | 146 | 3.0 | 7.0 | 0.00 | 0.00 | 0.00 | 76 | 1019.4 |
| 20260902063537 | 82 | 157 | 3.0 | 8.0 | 0.00 | 0.00 | 0.00 | 75 | 1019.4 |
| 20260902063046 | 82 | 160 | 3.0 | 8.0 | 0.00 | 0.00 | 0.00 | 75 | 1019.4 |
| 20260902062535 | 82 | 154 | 1.0 | 8.0 | 0.00 | 0.00 | 0.00 | 75 | 1019.4 |
| 20260902062036 | 82 | 143 | 3.0 | 8.0 | 0.00 | 0.00 | 0.00 | 75 | 1019.4 |
| 20260902061548 | 82 | 149 | 2.0 | 7.0 | 0.00 | 0.00 | 0.00 | 74 | 1019.3 |
| 20260902061037 | 82 | 146 | 4.0 | 8.0 | 0.00 | 0.00 | 0.00 | 74 | 1019.3 |
| 20260902060534 | 82 | 144 | 3.0 | 8.0 | 0.00 | 0.00 | 0.00 | 73 | 1019.2 |
| 20260902060043 | 83 | 148 | 4.0 | 8.0 | 0.00 | 0.00 | 0.00 | 73 | 1019.2 |
| 20260902055536 | 83 | 153 | 3.0 | 7.0 | 0.00 | 0.00 | 0.00 | 72 | 1019.2 |
| 20260902055035 | 83 | 122 | 3.0 | 7.0 | 0.00 | 0.00 | 0.00 | 72 | 1019.1 |
| 20260902054605 | 83 | 153 | 4.0 | 9.0 | 0.00 | 0.00 | 0.00 | 71 | 1019.2 |
| 20260902054036 | 83 | 360 | 4.0 | 9.0 | 0.00 | 0.00 | 0.00 | 71 | 1019.1 |
| 20260902053534 | 83 | 150 | 3.0 | 10.0 | 0.00 | 0.00 | 0.00 | 71 | 1019.1 |
| 20260902053100 | 83 | 157 | 3.0 | 10.0 | 0.00 | 0.00 | 0.00 | 70 | 1019.1 |
| 20260902052535 | 83 | 164 | 4.0 | 9.0 | 0.00 | 0.00 | 0.00 | 70 | 1019.1 |
| 20260902052035 | 83 | 140 | 4.0 | 9.0 | 0.00 | 0.00 | 0.00 | 70 | 1019.1 |
| 20260902051545 | 84 | 173 | 1.0 | 7.0 | 0.00 | 0.00 | 0.00 | 70 | 1019.1 |
| 20260902051035 | 84 | 163 | 2.0 | 7.0 | 0.00 | 0.00 | 0.00 | 70 | 1019.1 |
| 20260902050538 | 84 | 155 | 2.0 | 7.0 | 0.00 | 0.00 | 0.00 | 69 | 1019.1 |
| 20260902050059 | 84 | 132 | 3.0 | 8.0 | 0.00 | 0.00 | 0.00 | 69 | 1019.0 |
| 20260902045534 | 84 | 173 | 2.0 | 9.0 | 0.00 | 0.00 | 0.00 | 69 | 1019.0 |
| 20260902045036 | 84 | 163 | 3.0 | 9.0 | 0.00 | 0.00 | 0.00 | 68 | 1019.0 |
| 20260902044554 | 84 | 360 | 2.0 | 9.0 | 0.00 | 0.00 | 0.00 | 67 | 1019.1 |
| 20260902044036 | 85 | 167 | 3.0 | 7.0 | 0.00 | 0.00 | 0.00 | 67 | 1019.1 |
| 20260902043534 | 85 | 118 | 2.0 | 7.0 | 0.00 | 0.00 | 0.00 | 66 | 1019.0 |
| 20260902043111 | 85 | 154 | 1.0 | 7.0 | 0.00 | 0.00 | 0.00 | 66 | 1018.9 |
| 20260902042538 | 85 | 92 | 2.0 | 7.0 | 0.00 | 0.00 | 0.00 | 65 | 1018.9 |
| 20260902042035 | 85 | 360 | 1.0 | 7.0 | 0.00 | 0.00 | 0.00 | 65 | 1018.9 |
| 20260902041547 | 85 | 360 | 1.0 | 7.0 | 0.00 | 0.00 | 0.00 | 64 | 1018.9 |
| 20260902041035 | 86 | 175 | 3.0 | 9.0 | 0.00 | 0.00 | 0.00 | 64 | 1018.8 |
| 20260902040535 | 86 | 138 | 3.0 | 9.0 | 0.00 | 0.00 | 0.00 | 64 | 1018.7 |
| 20260902040056 | 86 | 140 | 4.0 | 9.0 | 0.00 | 0.00 | 0.00 | 64 | 1018.7 |
| 20260902035535 | 86 | 165 | 3.0 | 9.0 | 0.00 | 0.00 | 0.00 | 63 | 1018.7 |
| 20260902035034 | 86 | 105 | 3.0 | 8.0 | 0.00 | 0.00 | 0.00 | 63 | 1018.7 |
| 20260902034554 | 86 | 150 | 3.0 | 8.0 | 0.00 | 0.00 | 0.00 | 63 | 1018.7 |
| 20260902034035 | 86 | 136 | 2.0 | 8.0 | 0.00 | 0.00 | 0.00 | 63 | 1018.6 |
| 20260902033535 | 86 | 69 | 2.0 | 9.0 | 0.00 | 0.00 | 0.00 | 63 | 1018.7 |
| 20260902033054 | 86 | 75 | 3.0 | 10.0 | 0.00 | 0.00 | 0.00 | 63 | 1018.5 |
| 20260902032535 | 87 | 119 | 2.0 | 10.0 | 0.00 | 0.00 | 0.00 | 63 | 1018.5 |
| 20260902032035 | 87 | 360 | 3.0 | 11.0 | 0.00 | 0.00 | 0.00 | 63 | 1018.5 |
| 20260902031549 | 87 | 144 | 4.0 | 11.0 | 0.00 | 0.00 | 0.00 | 63 | 1018.5 |
| 20260902031035 | 87 | 102 | 3.0 | 11.0 | 0.00 | 0.00 | 0.00 | 63 | 1018.3 |
| 20260902030534 | 87 | 0 | 3.0 | 14.0 | 0.00 | 0.00 | 0.00 | 63 | 1018.3 |
| 20260902030055 | 88 | 99 | 5.0 | 14.0 | 0.00 | 0.00 | 0.00 | 62 | 1018.1 |
| 20260902025535 | 88 | 360 | 4.0 | 10.0 | 0.00 | 0.00 | 0.00 | 62 | 1018.1 |
| 20260902025035 | 88 | 91 | 5.0 | 12.0 | 0.00 | 0.00 | 0.00 | 61 | 1018.0 |
| 20260902024553 | 88 | 126 | 5.0 | 12.0 | 0.00 | 0.00 | 0.00 | 60 | 1017.9 |
| 20260902024034 | 88 | 68 | 5.0 | 12.0 | 0.00 | 0.00 | 0.00 | 60 | 1017.9 |
| 20260902023537 | 89 | 70 | 4.0 | 12.0 | 0.00 | 0.00 | 0.00 | 59 | 1017.8 |
| 20260902023057 | 89 | 360 | 6.0 | 14.0 | 0.00 | 0.00 | 0.00 | 58 | 1017.8 |
| 20260902022535 | 89 | 98 | 5.0 | 14.0 | 0.00 | 0.00 | 0.00 | 57 | 1017.7 |
| 20260902022038 | 90 | 98 | 5.0 | 11.0 | 0.00 | 0.00 | 0.00 | 57 | 1017.5 |
| 20260902021548 | 90 | 70 | 3.0 | 11.0 | 0.00 | 0.00 | 0.00 | 57 | 1017.5 |
| 20260902021040 | 90 | 98 | 4.0 | 11.0 | 0.00 | 0.00 | 0.00 | 56 | 1017.3 |
| 20260902020535 | 91 | 360 | 3.0 | 11.0 | 0.00 | 0.00 | 0.00 | 54 | 1017.2 |
| 20260902020046 | 91 | 94 | 5.0 | 11.0 | 0.00 | 0.00 | 0.00 | 54 | 1017.3 |
| 20260902015535 | 92 | 88 | 4.0 | 11.0 | 0.00 | 0.00 | 0.00 | 53 | 1017.2 |
| 20260902015035 | 92 | 76 | 4.0 | 11.0 | 0.00 | 0.00 | 0.00 | 52 | 1017.1 |
| 20260902014545 | 92 | 88 | 2.0 | 11.0 | 0.00 | 0.00 | 0.00 | 51 | 1016.9 |
| 20260902014034 | 93 | 77 | 4.0 | 11.0 | 0.00 | 0.00 | 0.00 | 51 | 1016.8 |
| 20260902013534 | 93 | 87 | 3.0 | 10.0 | 0.00 | 0.00 | 0.00 | 49 | 1016.8 |
| 20260902013052 | 94 | 76 | 1.0 | 8.0 | 0.00 | 0.00 | 0.00 | 47 | 1016.8 |
| 20260902012535 | 94 | 74 | 3.0 | 8.0 | 0.00 | 0.00 | 0.00 | 46 | 1016.7 |
| 20260902012034 | 95 | 0 | 0.0 | 0.0 | 0.00 | 0.00 | 0.00 | 46 | 1016.5 |
| 20260902011616 | 95 | 0 | 0.0 | 0.0 | 0.00 | 0.00 | 0.00 | 45 | 1016.5 |
| 20260902011034 | 96 | 0 | 0.0 | 0.0 | 0.00 | 0.00 | 0.00 | 44 | 1016.4 |
| 20260902010534 | 96 | 0 | 0.0 | 0.0 | 0.00 | 0.00 | 0.00 | 43 | 1016.4 |
| 20260902010049 | 97 | 0 | 0.0 | 0.0 | 0.00 | 0.00 | 0.00 | 43 | 1016.3 |
| 20260902005536 | 97 | 0 | 0.0 | 1.0 | 0.00 | 0.00 | 0.00 | 42 | 1016.3 |
| 20260902005035 | 97 | 0 | 0.0 | 1.0 | 0.00 | 0.00 | 0.00 | 42 | 1016.2 |
| 20260902004557 | 98 | 0 | 0.0 | 3.0 | 0.00 | 0.00 | 0.00 | 41 | 1016.3 |
| 20260902004034 | 98 | 0 | 0.0 | 3.0 | 0.00 | 0.00 | 0.00 | 41 | 1016.2 |
| 20260902003534 | 99 | 99 | 0.0 | 3.0 | 0.00 | 0.00 | 0.00 | 40 | 1016.3 |
| 20260902003104 | 99 | 0 | 0.0 | 4.0 | 0.00 | 0.00 | 0.00 | 40 | 1016.3 |
| 20260902002534 | 99 | 0 | 0.0 | 5.0 | 0.00 | 0.00 | 0.00 | 40 | 1016.4 |
| 20260902002034 | 100 | 0 | 0.0 | 6.0 | 0.00 | 0.00 | 0.00 | 40 | 1016.5 |
| 20260902001555 | 100 | 111 | 1.0 | 6.0 | 0.00 | 0.00 | 0.00 | 39 | 1016.4 |
| 20260902001034 | 100 | 113 | 0.0 | 4.0 | 0.00 | 0.00 | 0.00 | 39 | 1016.3 |
| 20260902000534 | 100 | 69 | 1.0 | 5.0 | 0.00 | 0.00 | 0.00 | 39 | 1016.3 |
| 20260902000059 | 100 | 174 | 0.0 | 5.0 | 0.00 | 0.00 | 0.00 | 39 | 1016.3 |
| 20260901235534 | 100 | 0 | 0.0 | 4.0 | 0.00 | 0.00 | 0.00 | 38 | 1016.2 |
| 20260901235039 | 100 | 0 | 1.0 | 4.0 | 0.00 | 0.00 | 0.00 | 39 | 1016.3 |
| 20260901234602 | 100 | 0 | 0.0 | 2.0 | 0.00 | 0.00 | 0.00 | 39 | 1016.4 |
| 20260901234036 | 100 | 0 | 0.0 | 3.0 | 0.00 | 0.00 | 0.00 | 39 | 1016.4 |
| 20260901233535 | 100 | 0 | 0.0 | 3.0 | 0.00 | 0.00 | 0.00 | 38 | 1016.4 |
| 20260901233044 | 100 | 83 | 0.0 | 5.0 | 0.00 | 0.00 | 0.00 | 38 | 1016.4 |
| 20260901232535 | 101 | 0 | 0.0 | 5.0 | 0.00 | 0.00 | 0.00 | 38 | 1016.4 |
| 20260901232035 | 101 | 169 | 1.0 | 7.0 | 0.00 | 0.00 | 0.00 | 38 | 1016.4 |
| 20260901231609 | 101 | 150 | 2.0 | 7.0 | 0.00 | 0.00 | 0.00 | 38 | 1016.4 |
| 20260901231034 | 101 | 0 | 0.0 | 6.0 | 0.00 | 0.00 | 0.00 | 38 | 1016.4 |
| 20260901230537 | 101 | 152 | 2.0 | 10.0 | 0.00 | 0.00 | 0.00 | 38 | 1016.4 |
| 20260901230106 | 101 | 76 | 4.0 | 10.0 | 0.00 | 0.00 | 0.00 | 37 | 1016.3 |
| 20260901225537 | 101 | 160 | 2.0 | 7.0 | 0.00 | 0.00 | 0.00 | 38 | 1016.4 |
| 20260901225035 | 101 | 0 | 2.0 | 7.0 | 0.00 | 0.00 | 0.00 | 37 | 1016.4 |
| 20260901224603 | 101 | 42 | 1.0 | 5.0 | 0.00 | 0.00 | 0.00 | 38 | 1016.4 |
| 20260901224035 | 102 | 0 | 0.0 | 7.0 | 0.00 | 0.00 | 0.00 | 37 | 1016.5 |
| 20260901223537 | 102 | 71 | 3.0 | 9.0 | 0.00 | 0.00 | 0.00 | 37 | 1016.4 |
| 20260901223043 | 102 | 121 | 1.0 | 10.0 | 0.00 | 0.00 | 0.00 | 38 | 1016.5 |
| 20260901222534 | 102 | 172 | 4.0 | 10.0 | 0.00 | 0.00 | 0.00 | 37 | 1016.5 |
| 20260901222036 | 102 | 131 | 0.0 | 4.0 | 0.00 | 0.00 | 0.00 | 37 | 1016.5 |
| 20260901221617 | 102 | 0 | 1.0 | 4.0 | 0.00 | 0.00 | 0.00 | 36 | 1016.5 |
| 20260901221035 | 102 | 0 | 1.0 | 4.0 | 0.00 | 0.00 | 0.00 | 36 | 1016.5 |
| 20260901220537 | 102 | 0 | 0.0 | 9.0 | 0.00 | 0.00 | 0.00 | 36 | 1016.5 |
| 20260901215536 | 102 | 64 | 4.0 | 9.0 | 0.00 | 0.00 | 0.00 | 36 | 1016.5 |
| 20260901215035 | 102 | 40 | 2.0 | 5.0 | 0.00 | 0.00 | 0.00 | 37 | 1016.6 |
| 20260901214552 | 103 | 25 | 1.0 | 10.0 | 0.00 | 0.00 | 0.00 | 36 | 1016.6 |
| 20260901214035 | 103 | 80 | 3.0 | 10.0 | 0.00 | 0.00 | 0.00 | 36 | 1016.5 |
| 20260901213535 | 103 | 91 | 3.0 | 8.0 | 0.00 | 0.00 | 0.00 | 36 | 1016.6 |
| 20260901213103 | 103 | 227 | 0.0 | 7.0 | 0.00 | 0.00 | 0.00 | 36 | 1016.5 |
| 20260901212536 | 104 | 360 | 2.0 | 6.0 | 0.00 | 0.00 | 0.00 | 35 | 1016.7 |
| 20260901212035 | 103 | 0 | 1.0 | 12.0 | 0.00 | 0.00 | 0.00 | 36 | 1016.6 |
| 20260901211544 | 103 | 44 | 3.0 | 12.0 | 0.00 | 0.00 | 0.00 | 35 | 1016.8 |
| 20260901211034 | 103 | 184 | 1.0 | 8.0 | 0.00 | 0.00 | 0.00 | 35 | 1016.9 |
| 20260901210534 | 104 | 199 | 0.0 | 6.0 | 0.00 | 0.00 | 0.00 | 36 | 1017.0 |
| 20260901210054 | 105 | 0 | 1.0 | 13.0 | 0.00 | 0.00 | 0.00 | 34 | 1017.1 |
| 20260901205538 | 105 | 78 | 5.0 | 13.0 | 0.00 | 0.00 | 0.00 | 35 | 1017.2 |
| 20260901205035 | 104 | 176 | 4.0 | 9.0 | 0.00 | 0.00 | 0.00 | 34 | 1017.2 |
| 20260901204602 | 104 | 155 | 3.0 | 9.0 | 0.00 | 0.00 | 0.00 | 34 | 1017.3 |
| 20260901204035 | 104 | 0 | 1.0 | 9.0 | 0.00 | 0.00 | 0.00 | 35 | 1017.4 |
| 20260901203539 | 103 | 168 | 4.0 | 11.0 | 0.00 | 0.00 | 0.00 | 35 | 1017.6 |
| 20260901203047 | 103 | 0 | 5.0 | 11.0 | 0.00 | 0.00 | 0.00 | 35 | 1017.7 |
| 20260901202536 | 103 | 175 | 0.0 | 10.0 | 0.00 | 0.00 | 0.00 | 36 | 1017.8 |
| 20260901202035 | 104 | 265 | 1.0 | 10.0 | 0.00 | 0.00 | 0.00 | 34 | 1017.9 |
| 20260901201558 | 104 | 175 | 5.0 | 10.0 | 0.00 | 0.00 | 0.00 | 35 | 1018.0 |
| 20260901201036 | 104 | 53 | 1.0 | 8.0 | 0.00 | 0.00 | 0.00 | 35 | 1018.1 |
| 20260901200534 | 104 | 80 | 2.0 | 4.0 | 0.00 | 0.00 | 0.00 | 35 | 1018.2 |
| 20260901200115 | 104 | 99 | 1.0 | 4.0 | 0.00 | 0.00 | 0.00 | 36 | 1018.2 |
| 20260901195535 | 104 | 0 | 0.0 | 6.0 | 0.00 | 0.00 | 0.00 | 35 | 1018.3 |
| 20260901195042 | 103 | 111 | 0.0 | 8.0 | 0.00 | 0.00 | 0.00 | 37 | 1018.3 |
| 20260901194606 | 103 | 0 | 2.0 | 8.0 | 0.00 | 0.00 | 0.00 | 37 | 1018.4 |
| 20260901194038 | 102 | 360 | 3.0 | 11.0 | 0.00 | 0.00 | 0.00 | 39 | 1018.4 |
| 20260901193534 | 102 | 197 | 2.0 | 11.0 | 0.00 | 0.00 | 0.00 | 37 | 1018.4 |
| 20260901193054 | 102 | 113 | 3.0 | 9.0 | 0.00 | 0.00 | 0.00 | 37 | 1018.6 |
| 20260901192534 | 102 | 150 | 2.0 | 7.0 | 0.00 | 0.00 | 0.00 | 38 | 1018.5 |
| 20260901192037 | 101 | 0 | 2.0 | 5.0 | 0.00 | 0.00 | 0.00 | 39 | 1018.6 |
| 20260901191623 | 102 | 0 | 1.0 | 4.0 | 0.00 | 0.00 | 0.00 | 35 | 1018.6 |
| 20260901191037 | 102 | 22 | 1.0 | 4.0 | 0.00 | 0.00 | 0.00 | 38 | 1018.7 |
| 20260901190539 | 101 | 0 | 0.0 | 3.0 | 0.00 | 0.00 | 0.00 | 37 | 1018.7 |
| 20260901190100 | 101 | 0 | 0.0 | 6.0 | 0.00 | 0.00 | 0.00 | 38 | 1018.9 |
| 20260901185535 | 101 | 0 | 1.0 | 7.0 | 0.00 | 0.00 | 0.00 | 38 | 1019.0 |
| 20260901185034 | 101 | 135 | 2.0 | 7.0 | 0.00 | 0.00 | 0.00 | 38 | 1019.1 |
| 20260901184551 | 101 | 179 | 2.0 | 10.0 | 0.00 | 0.00 | 0.00 | 39 | 1019.2 |
| 20260901184035 | 101 | 246 | 3.0 | 10.0 | 0.00 | 0.00 | 0.00 | 39 | 1019.3 |
| 20260901183536 | 101 | 202 | 1.0 | 9.0 | 0.00 | 0.00 | 0.00 | 40 | 1019.3 |
| 20260901183054 | 100 | 0 | 1.0 | 9.0 | 0.00 | 0.00 | 0.00 | 40 | 1019.5 |
| 20260901182535 | 100 | 0 | 2.0 | 6.0 | 0.00 | 0.00 | 0.00 | 37 | 1019.5 |
| 20260901182035 | 100 | 69 | 1.0 | 9.0 | 0.00 | 0.00 | 0.00 | 42 | 1019.7 |
| 20260901181614 | 99 | 163 | 2.0 | 9.0 | 0.00 | 0.00 | 0.00 | 39 | 1019.7 |
| 20260901181034 | 99 | 0 | 4.0 | 11.0 | 0.00 | 0.00 | 0.00 | 37 | 1019.9 |
| 20260901180535 | 99 | 134 | 5.0 | 11.0 | 0.00 | 0.00 | 0.00 | 40 | 1019.9 |
| 20260901180049 | 100 | 171 | 4.0 | 11.0 | 0.00 | 0.00 | 0.00 | 40 | 1020.1 |
| 20260901175535 | 100 | 172 | 4.0 | 11.0 | 0.00 | 0.00 | 0.00 | 38 | 1020.0 |
| 20260901175035 | 101 | 360 | 4.0 | 11.0 | 0.00 | 0.00 | 0.00 | 39 | 1020.1 |
| 20260901174548 | 101 | 117 | 3.0 | 8.0 | 0.00 | 0.00 | 0.00 | 39 | 1020.2 |
| 20260901174035 | 100 | 61 | 1.0 | 7.0 | 0.00 | 0.00 | 0.00 | 42 | 1020.4 |
| 20260901173539 | 99 | 155 | 2.0 | 8.0 | 0.00 | 0.00 | 0.00 | 43 | 1020.4 |
| 20260901173054 | 99 | 28 | 3.0 | 9.0 | 0.00 | 0.00 | 0.00 | 43 | 1020.5 |
| 20260901172536 | 99 | 167 | 1.0 | 9.0 | 0.00 | 0.00 | 0.00 | 40 | 1020.5 |
| 20260901172035 | 98 | 76 | 3.0 | 9.0 | 0.00 | 0.00 | 0.00 | 42 | 1020.7 |
| 20260901171601 | 98 | 0 | 0.0 | 7.0 | 0.00 | 0.00 | 0.00 | 43 | 1020.7 |
| 20260901171034 | 98 | 153 | 1.0 | 7.0 | 0.00 | 0.00 | 0.00 | 43 | 1020.7 |
| 20260901170535 | 98 | 159 | 2.0 | 9.0 | 0.00 | 0.00 | 0.00 | 44 | 1020.8 |
| 20260901170058 | 98 | 172 | 4.0 | 9.0 | 0.00 | 0.00 | 0.00 | 44 | 1020.8 |
| 20260901165535 | 98 | 0 | 1.0 | 5.0 | 0.00 | 0.00 | 0.00 | 47 | 1020.8 |
| 20260901165035 | 97 | 57 | 1.0 | 5.0 | 0.00 | 0.00 | 0.00 | 47 | 1020.9 |
| 20260901164605 | 97 | 0 | 0.0 | 7.0 | 0.00 | 0.00 | 0.00 | 45 | 1020.9 |
| 20260901164035 | 97 | 79 | 3.0 | 7.0 | 0.00 | 0.00 | 0.00 | 45 | 1020.9 |
| 20260901163535 | 97 | 61 | 0.0 | 10.0 | 0.00 | 0.00 | 0.00 | 48 | 1020.9 |
| 20260901163054 | 96 | 166 | 0.0 | 10.0 | 0.00 | 0.00 | 0.00 | 47 | 1020.9 |
| 20260901162535 | 96 | 0 | 3.0 | 10.0 | 0.00 | 0.00 | 0.00 | 44 | 1021.0 |
| 20260901162034 | 95 | 0 | 0.0 | 7.0 | 0.00 | 0.00 | 0.00 | 49 | 1021.1 |
| 20260901161553 | 95 | 159 | 2.0 | 7.0 | 0.00 | 0.00 | 0.00 | 51 | 1021.0 |
| 20260901161035 | 95 | 0 | 0.0 | 4.0 | 0.00 | 0.00 | 0.00 | 53 | 1021.0 |
| 20260901160534 | 95 | 242 | 0.0 | 7.0 | 0.00 | 0.00 | 0.00 | 53 | 1020.9 |
| 20260901160108 | 94 | 0 | 1.0 | 7.0 | 0.00 | 0.00 | 0.00 | 56 | 1021.0 |
| 20260901155535 | 93 | 0 | 1.0 | 7.0 | 0.00 | 0.00 | 0.00 | 56 | 1021.0 |
| 20260901155035 | 94 | 0 | 1.0 | 6.0 | 0.00 | 0.00 | 0.00 | 56 | 1021.0 |
| 20260901154558 | 94 | 77 | 0.0 | 5.0 | 0.00 | 0.00 | 0.00 | 57 | 1021.0 |
| 20260901154035 | 93 | 0 | 1.0 | 7.0 | 0.00 | 0.00 | 0.00 | 56 | 1021.1 |
| 20260901153535 | 93 | 0 | 2.0 | 7.0 | 0.00 | 0.00 | 0.00 | 58 | 1021.0 |
| 20260901153101 | 92 | 0 | 2.0 | 5.0 | 0.00 | 0.00 | 0.00 | 60 | 1021.0 |
| 20260901152534 | 92 | 151 | 2.0 | 5.0 | 0.00 | 0.00 | 0.00 | 60 | 1021.0 |
| 20260901152034 | 91 | 161 | 0.0 | 5.0 | 0.00 | 0.00 | 0.00 | 62 | 1021.1 |
| 20260901151552 | 91 | 0 | 1.0 | 8.0 | 0.00 | 0.00 | 0.00 | 63 | 1020.9 |
| 20260901151035 | 90 | 153 | 1.0 | 8.0 | 0.00 | 0.00 | 0.00 | 61 | 1021.0 |
| 20260901150534 | 90 | 126 | 3.0 | 7.0 | 0.00 | 0.00 | 0.00 | 63 | 1021.0 |
| 20260901150107 | 89 | 211 | 1.0 | 7.0 | 0.00 | 0.00 | 0.00 | 65 | 1021.0 |
| 20260901145535 | 89 | 163 | 2.0 | 7.0 | 0.00 | 0.00 | 0.00 | 65 | 1021.0 |
| 20260901145034 | 89 | 163 | 2.0 | 5.0 | 0.00 | 0.00 | 0.00 | 66 | 1021.0 |
| 20260901144557 | 88 | 169 | 0.0 | 5.0 | 0.00 | 0.00 | 0.00 | 69 | 1021.1 |
| 20260901144034 | 88 | 156 | 1.0 | 5.0 | 0.00 | 0.00 | 0.00 | 69 | 1021.0 |
| 20260901143535 | 88 | 198 | 0.0 | 8.0 | 0.00 | 0.00 | 0.00 | 68 | 1021.0 |
| 20260901143112 | 88 | 151 | 1.0 | 8.0 | 0.00 | 0.00 | 0.00 | 71 | 1021.0 |
| 20260901142536 | 87 | 46 | 0.0 | 5.0 | 0.00 | 0.00 | 0.00 | 73 | 1021.0 |
| 20260901142035 | 86 | 179 | 0.0 | 6.0 | 0.00 | 0.00 | 0.00 | 75 | 1021.0 |
| 20260901141549 | 86 | 0 | 0.0 | 6.0 | 0.00 | 0.00 | 0.00 | 75 | 1020.9 |
| 20260901141035 | 85 | 140 | 0.0 | 6.0 | 0.00 | 0.00 | 0.00 | 79 | 1020.9 |
| 20260901140534 | 84 | 0 | 0.0 | 6.0 | 0.00 | 0.00 | 0.00 | 80 | 1020.8 |
| 20260901140132 | 83 | 177 | 0.0 | 4.0 | 0.00 | 0.00 | 0.00 | 80 | 1020.8 |
| 20260901135535 | 82 | 0 | 1.0 | 4.0 | 0.00 | 0.00 | 0.00 | 83 | 1020.8 |
| 20260901135034 | 82 | 205 | 0.0 | 3.0 | 0.00 | 0.00 | 0.00 | 85 | 1020.8 |
| 20260901134551 | 82 | 0 | 0.0 | 3.0 | 0.00 | 0.00 | 0.00 | 88 | 1020.8 |
| 20260901134036 | 81 | 0 | 0.0 | 0.0 | 0.00 | 0.00 | 0.00 | 89 | 1020.7 |
| 20260901133535 | 80 | 0 | 0.0 | 0.0 | 0.00 | 0.00 | 0.00 | 90 | 1020.7 |
| 20260901133047 | 79 | 0 | 0.0 | 0.0 | 0.00 | 0.00 | 0.00 | 91 | 1020.7 |
| 20260901132537 | 79 | 0 | 0.0 | 0.0 | 0.00 | 0.00 | 0.00 | 92 | 1020.7 |
| 20260901132037 | 78 | 0 | 0.0 | 0.0 | 0.00 | 0.00 | 0.00 | 93 | 1020.5 |
| 20260901131558 | 78 | 0 | 0.0 | 0.0 | 0.00 | 0.00 | 0.00 | 93 | 1020.6 |
| 20260901131035 | 77 | 0 | 0.0 | 0.0 | 0.00 | 0.00 | 0.00 | 93 | 1020.5 |
| 20260901130535 | 77 | 0 | 0.0 | 0.0 | 0.00 | 0.00 | 0.00 | 93 | 1020.4 |
| 20260901130050 | 77 | 0 | 0.0 | 0.0 | 0.00 | 0.00 | 0.00 | 93 | 1020.3 |
| 20260901125534 | 77 | 0 | 0.0 | 0.0 | 0.00 | 0.00 | 0.00 | 93 | 1020.2 |
| 20260901125035 | 77 | 0 | 0.0 | 0.0 | 0.00 | 0.00 | 0.00 | 92 | 1020.2 |
| 20260901124545 | 77 | 0 | 0.0 | 0.0 | 0.00 | 0.00 | 0.00 | 92 | 1020.1 |
| 20260901124036 | 77 | 0 | 0.0 | 0.0 | 0.00 | 0.00 | 0.00 | 92 | 1020.1 |
| 20260901123535 | 77 | 0 | 0.0 | 0.0 | 0.00 | 0.00 | 0.00 | 92 | 1020.0 |
| 20260901123053 | 77 | 0 | 0.0 | 0.0 | 0.00 | 0.00 | 0.00 | 91 | 1020.0 |
| 20260901122535 | 77 | 0 | 0.0 | 0.0 | 0.00 | 0.00 | 0.00 | 91 | 1020.1 |
| 20260901122034 | 77 | 0 | 0.0 | 0.0 | 0.00 | 0.00 | 0.00 | 91 | 1020.1 |
| 20260901121553 | 77 | 0 | 0.0 | 0.0 | 0.00 | 0.00 | 0.00 | 91 | 1019.9 |
| 20260901121035 | 77 | 0 | 0.0 | 0.0 | 0.00 | 0.00 | 0.00 | 91 | 1019.9 |
| 20260901120535 | 77 | 0 | 0.0 | 0.0 | 0.00 | 0.00 | 0.00 | 91 | 1020.0 |
| 20260901120047 | 77 | 0 | 0.0 | 0.0 | 0.00 | 0.00 | 0.00 | 91 | 1020.1 |
| 20260901115535 | 77 | 0 | 0.0 | 0.0 | 0.00 | 0.00 | 0.00 | 91 | 1020.2 |
| 20260901115035 | 77 | 0 | 0.0 | 0.0 | 0.00 | 0.00 | 0.00 | 91 | 1020.2 |
| 20260901114553 | 78 | 0 | 0.0 | 0.0 | 0.00 | 0.00 | 0.00 | 91 | 1020.2 |
| 20260901114036 | 78 | 0 | 0.0 | 0.0 | 0.00 | 0.00 | 0.00 | 91 | 1020.1 |
| 20260901113535 | 78 | 0 | 0.0 | 0.0 | 0.00 | 0.00 | 0.00 | 91 | 1020.2 |
| 20260901113051 | 78 | 0 | 0.0 | 0.0 | 0.00 | 0.00 | 0.00 | 91 | 1020.1 |
| 20260901112534 | 78 | 0 | 0.0 | 0.0 | 0.00 | 0.00 | 0.00 | 91 | 1020.2 |
| 20260901112035 | 78 | 0 | 0.0 | 0.0 | 0.00 | 0.00 | 0.00 | 90 | 1020.2 |
| 20260901111550 | 78 | 0 | 0.0 | 0.0 | 0.00 | 0.00 | 0.00 | 90 | 1020.2 |
| 20260901111035 | 78 | 0 | 0.0 | 0.0 | 0.00 | 0.00 | 0.00 | 90 | 1020.1 |
| 20260901110535 | 78 | 0 | 0.0 | 0.0 | 0.00 | 0.00 | 0.00 | 91 | 1020.1 |
| 20260901110044 | 78 | 0 | 0.0 | 0.0 | 0.00 | 0.00 | 0.00 | 91 | 1020.3 |
| 20260901105534 | 78 | 0 | 0.0 | 0.0 | 0.00 | 0.00 | 0.00 | 91 | 1020.2 |
| 20260901105037 | 78 | 0 | 0.0 | 1.0 | 0.00 | 0.00 | 0.00 | 91 | 1020.2 |
| 20260901104602 | 78 | 0 | 0.0 | 1.0 | 0.00 | 0.00 | 0.00 | 91 | 1020.2 |
| 20260901104036 | 78 | 0 | 0.0 | 2.0 | 0.00 | 0.00 | 0.00 | 91 | 1020.3 |
| 20260901103535 | 78 | 0 | 0.0 | 2.0 | 0.00 | 0.00 | 0.00 | 92 | 1020.3 |
| 20260901103052 | 78 | 0 | 0.0 | 2.0 | 0.00 | 0.00 | 0.00 | 92 | 1020.2 |
| 20260901102534 | 78 | 0 | 0.0 | 0.0 | 0.00 | 0.00 | 0.00 | 92 | 1020.2 |
| 20260901102034 | 77 | 0 | 0.0 | 0.0 | 0.00 | 0.00 | 0.00 | 92 | 1020.2 |
| 20260901101603 | 77 | 0 | 0.0 | 0.0 | 0.00 | 0.00 | 0.00 | 91 | 1020.0 |
| 20260901101035 | 77 | 0 | 0.0 | 0.0 | 0.00 | 0.00 | 0.00 | 91 | 1020.0 |
| 20260901100536 | 77 | 0 | 0.0 | 0.0 | 0.00 | 0.00 | 0.00 | 91 | 1020.0 |
| 20260901100049 | 77 | 0 | 0.0 | 0.0 | 0.00 | 0.00 | 0.00 | 90 | 1020.0 |
| 20260901095535 | 77 | 0 | 0.0 | 0.0 | 0.00 | 0.00 | 0.00 | 90 | 1019.9 |